User: anonymous
Location: Coleman
(45.0650°N, 88.0340°W)
Time: 05:25:58
(UTC-05:00)
Language:

Iridium 97 - Orbit

View from above orbital plane
View from above orbital plane
View from above satellite
View from above satellite

Ground track
Ground track

The orbit data is extracted from the following two-line orbital elements,

1 27450U 02031A   14274.40531770  .00000465  00000-0  15903-3 0  3955
2 27450 086.4010 012.6341 0002006 139.1989 220.9357 14.34219123648369
Epoch (UTC): 01 October 2014 09:43:39
Eccentricity: 0.0002006
inclination: 86.4010°
perigee height: 776 km
apogee height: 779 km
right ascension of ascending node: 12.6341°
argument of perigee: 139.1989°
revolutions per day: 14.34219123
mean anomaly at epoch: 220.9357°
orbit number at epoch: 64836

The dashed part of the orbit path shows where the satellite is in the earth's shadow,  

DLR